owner,sensor,date,latitude,longitude,vertical_datum,direction_of_sea_water_velocity,sea_water_speed,upward_sea_water_velocity,qcFlag 
TABS,ioos:station:wmo:42049:1,2017-07-01T00:00:00Z,28.3507,-96.0058,2.0,41.39638339,4.6123855,-99999.0,'11133222,11111222,99999999' 
TABS,ioos:station:wmo:42049:1,2017-07-01T00:30:00Z,28.3507,-96.0058,2.0,17.18587642,3.045997374,-99999.0,'11133222,11111222,99999999' 
TABS,ioos:station:wmo:42049:1,2017-07-01T01:00:00Z,28.3507,-96.0058,2.0,17.23732839,4.387037725,-99999.0,'11133222,11111222,99999999' 
TABS,ioos:station:wmo:42049:1,2017-07-01T01:30:00Z,28.3507,-96.0058,2.0,355.3364197,3.812623768,-99999.0,'11133222,11111222,99999999' 
TABS,ioos:station:wmo:42049:1,2017-07-01T02:00:00Z,28.3507,-96.0058,2.0,2.138254941,7.505224847,-99999.0,'11133222,11111222,99999999' 
TABS,ioos:station:wmo:42049:1,2017-07-01T02:30:00Z,28.3507,-96.0058,2.0,19.64157167,9.311809706,-99999.0,'11133222,11111222,99999999' 
TABS,ioos:station:wmo:42049:1,2017-07-01T03:00:00Z,28.3507,-96.0058,2.0,4.370997276,9.447475853,-99999.0,'11133222,11111222,99999999' 
TABS,ioos:station:wmo:42049:1,2017-07-01T03:30:00Z,28.3507,-96.0058,2.0,7.624778047,11.38061949,-99999.0,'11111222,11111222,99999999' 
TABS,ioos:station:wmo:42049:1,2017-07-01T04:00:00Z,28.3507,-96.0058,2.0,15.94556907,9.900949449,-99999.0,'11133222,11111222,99999999' 
TABS,ioos:station:wmo:42049:1,2017-07-01T04:30:00Z,28.3507,-96.0058,2.0,3.474996562,10.55941286,-99999.0,'11111222,11111222,99999999' 
TABS,ioos:station:wmo:42049:1,2017-07-01T05:00:00Z,28.3507,-96.0058,2.0,8.314676535,13.62318979,-99999.0,'11111222,11111222,99999999' 
TABS,ioos:station:wmo:42049:1,2017-07-01T05:30:00Z,28.3507,-96.0058,2.0,4.935005567,12.78740005,-99999.0,'11111222,11111222,99999999' 
TABS,ioos:station:wmo:42049:1,2017-07-01T06:00:00Z,28.3507,-96.0058,2.0,12.33656089,12.91828162,-99999.0,'11111222,11111222,99999999' 
TABS,ioos:station:wmo:42049:1,2017-07-01T06:30:00Z,28.3507,-96.0058,2.0,17.58288679,15.0952211,-99999.0,'11111222,11111222,99999999' 
TABS,ioos:station:wmo:42049:1,2017-07-01T07:00:00Z,28.3507,-96.0058,2.0,4.688301114,17.0068986,-99999.0,'11111222,11111222,99999999' 
TABS,ioos:station:wmo:42049:1,2017-07-01T07:30:00Z,28.3507,-96.0058,2.0,14.00257177,12.31596119,-99999.0,'11111222,11111222,99999999' 
TABS,ioos:station:wmo:42049:1,2017-07-01T08:00:00Z,28.3507,-96.0058,2.0,4.252408428,17.39789068,-99999.0,'11111222,11111222,99999999' 
TABS,ioos:station:wmo:42049:1,2017-07-01T08:30:00Z,28.3507,-96.0058,2.0,6.446256306,18.52712876,-99999.0,'11111222,11111222,99999999' 
TABS,ioos:station:wmo:42049:1,2017-07-01T09:00:00Z,28.3507,-96.0058,2.0,18.47912204,16.46914691,-99999.0,'11111222,11111222,99999999' 
TABS,ioos:station:wmo:42049:1,2017-07-01T09:30:00Z,28.3507,-96.0058,2.0,19.1689119,16.04987539,-99999.0,'11111222,11111222,99999999' 
TABS,ioos:station:wmo:42049:1,2017-07-01T10:00:00Z,28.3507,-96.0058,2.0,15.17025814,16.54659482,-99999.0,'11111222,11111222,99999999' 
TABS,ioos:station:wmo:42049:1,2017-07-01T10:30:00Z,28.3507,-96.0058,2.0,17.27438992,16.70341582,-99999.0,'11111222,11111222,99999999' 
TABS,ioos:station:wmo:42049:1,2017-07-01T11:00:00Z,28.3507,-96.0058,2.0,12.12415338,17.80718114,-99999.0,'11111222,11111222,99999999' 
TABS,ioos:station:wmo:42049:1,2017-07-01T11:30:00Z,28.3507,-96.0058,2.0,5.887509091,17.74358757,-99999.0,'11111222,11111222,99999999' 
TABS,ioos:station:wmo:42049:1,2017-07-01T12:00:00Z,28.3507,-96.0058,2.0,12.06122271,17.80299132,-99999.0,'11111222,11111222,99999999' 
TABS,ioos:station:wmo:42049:1,2017-07-01T12:30:00Z,28.3507,-96.0058,2.0,18.30053344,14.80898714,-99999.0,'11111222,11111222,99999999' 
TABS,ioos:station:wmo:42049:1,2017-07-01T13:00:00Z,28.3507,-96.0058,2.0,19.39149746,11.7463356,-99999.0,'11111222,11111222,99999999' 
TABS,ioos:station:wmo:42049:1,2017-07-01T13:30:00Z,28.3507,-96.0058,2.0,16.68350166,10.34548211,-99999.0,'11111222,11111222,99999999' 
TABS,ioos:station:wmo:42049:1,2017-07-01T14:00:00Z,28.3507,-96.0058,2.0,19.76648494,9.935396318,-99999.0,'11133222,11111222,99999999' 
TABS,ioos:station:wmo:42049:1,2017-07-01T14:30:00Z,28.3507,-96.0058,2.0,24.03669266,9.427497017,-99999.0,'11133222,11111222,99999999' 
TABS,ioos:station:wmo:42049:1,2017-07-01T15:00:00Z,28.3507,-96.0058,2.0,31.23461111,10.1631196,-99999.0,'11111222,11111222,99999999' 
TABS,ioos:station:wmo:42049:1,2017-07-01T15:30:00Z,28.3507,-96.0058,2.0,55.69942358,9.369418338,-99999.0,'11133222,11111222,99999999' 
TABS,ioos:station:wmo:42049:1,2017-07-01T16:00:00Z,28.3507,-96.0058,2.0,60.04454345,8.771795711,-99999.0,'11133222,11111222,99999999' 
TABS,ioos:station:wmo:42049:1,2017-07-01T16:30:00Z,28.3507,-96.0058,2.0,67.04250856,7.178586212,-99999.0,'11133222,11111222,99999999' 
TABS,ioos:station:wmo:42049:1,2017-07-01T17:00:00Z,28.3507,-96.0058,2.0,59.62331291,7.198173379,-99999.0,'11133222,11111222,99999999' 
TABS,ioos:station:wmo:42049:1,2017-07-01T17:30:00Z,28.3507,-96.0058,2.0,71.37218038,6.574412521,-99999.0,'11133222,11111222,99999999' 
TABS,ioos:station:wmo:42049:1,2017-07-01T18:00:00Z,28.3507,-96.0058,2.0,68.19864149,6.677604361,-99999.0,'11133222,11111222,99999999' 
TABS,ioos:station:wmo:42049:1,2017-07-01T18:30:00Z,28.3507,-96.0058,2.0,53.9002931,6.398577967,-99999.0,'11133222,11111222,99999999' 
TABS,ioos:station:wmo:42049:1,2017-07-01T19:00:00Z,28.3507,-96.0058,2.0,46.94904038,6.445471278,-99999.0,'11133222,11111222,99999999' 
TABS,ioos:station:wmo:42049:1,2017-07-01T19:30:00Z,28.3507,-96.0058,2.0,29.54813072,9.023580221,-99999.0,'11133222,11111222,99999999' 
TABS,ioos:station:wmo:42049:1,2017-07-01T20:00:00Z,28.3507,-96.0058,2.0,38.68748091,6.495267508,-99999.0,'11133222,11111222,99999999' 
TABS,ioos:station:wmo:42049:1,2017-07-01T20:30:00Z,28.3507,-96.0058,2.0,26.38156025,9.767195094,-99999.0,'11133222,11111222,99999999' 
TABS,ioos:station:wmo:42049:1,2017-07-01T21:00:00Z,28.3507,-96.0058,2.0,7.110549029,9.694555173,-99999.0,'11133222,11111222,99999999' 
TABS,ioos:station:wmo:42049:1,2017-07-01T21:30:00Z,28.3507,-96.0058,2.0,14.50604703,10.06071568,-99999.0,'11111222,11111222,99999999' 
TABS,ioos:station:wmo:42049:1,2017-07-01T22:00:00Z,28.3507,-96.0058,2.0,8.98782674,13.89054715,-99999.0,'11111222,11111222,99999999' 
TABS,ioos:station:wmo:42049:1,2017-07-01T22:30:00Z,28.3507,-96.0058,2.0,10.15515667,11.96747676,-99999.0,'11111222,11111222,99999999' 
TABS,ioos:station:wmo:42049:1,2017-07-01T23:00:00Z,28.3507,-96.0058,2.0,10.69952881,8.833572324,-99999.0,'11133222,11111222,99999999' 
TABS,ioos:station:wmo:42049:1,2017-07-01T23:30:00Z,28.3507,-96.0058,2.0,33.6901992,9.734988444,-99999.0,'11133222,11111222,99999999' 
TABS,ioos:station:wmo:42049:1,2017-07-02T00:00:00Z,28.3507,-96.0058,2.0,24.68815752,10.10350434,-99999.0,'11111222,11111222,99999999' 
TABS,ioos:station:wmo:42049:1,2017-07-02T00:30:00Z,28.3507,-96.0058,2.0,17.90206331,9.857246066,-99999.0,'11133222,11111222,99999999' 
TABS,ioos:station:wmo:42049:1,2017-07-02T01:00:00Z,28.3507,-96.0058,2.0,22.03047166,10.69056593,-99999.0,'11111222,11111222,99999999' 
TABS,ioos:station:wmo:42049:1,2017-07-02T01:30:00Z,28.3507,-96.0058,2.0,19.39062796,13.4636882,-99999.0,'11111222,11111222,99999999' 
TABS,ioos:station:wmo:42049:1,2017-07-02T02:00:00Z,28.3507,-96.0058,2.0,16.24580551,14.15520046,-99999.0,'11111222,11111222,99999999' 
TABS,ioos:station:wmo:42049:1,2017-07-02T02:30:00Z,28.3507,-96.0058,2.0,10.45396736,12.73131965,-99999.0,'11111222,11111222,99999999' 
TABS,ioos:station:wmo:42049:1,2017-07-02T03:00:00Z,28.3507,-96.0058,2.0,1.792228735,16.948289,-99999.0,'11111222,11111222,99999999' 
TABS,ioos:station:wmo:42049:1,2017-07-02T03:30:00Z,28.3507,-96.0058,2.0,1.152553676,17.40351976,-99999.0,'11111222,11111222,99999999' 
TABS,ioos:station:wmo:42049:1,2017-07-02T04:00:00Z,28.3507,-96.0058,2.0,354.3487288,17.36440324,-99999.0,'11111222,11111222,99999999' 
TABS,ioos:station:wmo:42049:1,2017-07-02T04:30:00Z,28.3507,-96.0058,2.0,343.8732843,21.6728586,-99999.0,'11111222,11111222,99999999' 
TABS,ioos:station:wmo:42049:1,2017-07-02T05:00:00Z,28.3507,-96.0058,2.0,348.0906775,21.17581876,-99999.0,'11111222,11111222,99999999' 
TABS,ioos:station:wmo:42049:1,2017-07-02T05:30:00Z,28.3507,-96.0058,2.0,344.9723131,22.56161785,-99999.0,'11111222,11111222,99999999' 
TABS,ioos:station:wmo:42049:1,2017-07-02T06:00:00Z,28.3507,-96.0058,2.0,350.17213,23.43390919,-99999.0,'11111222,11111222,99999999' 
TABS,ioos:station:wmo:42049:1,2017-07-02T06:30:00Z,28.3507,-96.0058,2.0,349.0543921,28.70217588,-99999.0,'11111222,11111222,99999999' 
TABS,ioos:station:wmo:42049:1,2017-07-02T07:00:00Z,28.3507,-96.0058,2.0,353.5909963,23.82893199,-99999.0,'11111222,11111222,99999999' 
TABS,ioos:station:wmo:42049:1,2017-07-02T07:30:00Z,28.3507,-96.0058,2.0,357.5272592,25.49374237,-99999.0,'11111222,11111222,99999999' 
TABS,ioos:station:wmo:42049:1,2017-07-02T08:00:00Z,28.3507,-96.0058,2.0,4.097180608,21.55508293,-99999.0,'11111222,11111222,99999999' 
TABS,ioos:station:wmo:42049:1,2017-07-02T08:30:00Z,28.3507,-96.0058,2.0,10.76425829,21.20307761,-99999.0,'11111222,11111222,99999999' 
TABS,ioos:station:wmo:42049:1,2017-07-02T09:00:00Z,28.3507,-96.0058,2.0,18.17108281,20.58664616,-99999.0,'11111222,11111222,99999999' 
TABS,ioos:station:wmo:42049:1,2017-07-02T09:30:00Z,28.3507,-96.0058,2.0,24.62840366,18.52522604,-99999.0,'11111222,11111222,99999999' 
TABS,ioos:station:wmo:42049:1,2017-07-02T10:00:00Z,28.3507,-96.0058,2.0,33.2743567,22.5463833,-99999.0,'11111222,11111222,99999999' 
TABS,ioos:station:wmo:42049:1,2017-07-02T10:30:00Z,28.3507,-96.0058,2.0,40.25359319,17.68883546,-99999.0,'11111222,11111222,99999999' 
TABS,ioos:station:wmo:42049:1,2017-07-02T11:00:00Z,28.3507,-96.0058,2.0,39.92412891,24.7751892,-99999.0,'11111222,11111222,99999999' 
TABS,ioos:station:wmo:42049:1,2017-07-02T11:30:00Z,28.3507,-96.0058,2.0,43.00223004,24.33926868,-99999.0,'11111222,11111222,99999999' 
TABS,ioos:station:wmo:42049:1,2017-07-02T12:00:00Z,28.3507,-96.0058,2.0,41.9588844,25.45634106,-99999.0,'11111222,11111222,99999999' 
TABS,ioos:station:wmo:42049:1,2017-07-02T12:30:00Z,28.3507,-96.0058,2.0,42.5133812,24.93485312,-99999.0,'11111222,11111222,99999999' 
TABS,ioos:station:wmo:42049:1,2017-07-02T13:00:00Z,28.3507,-96.0058,2.0,39.92249239,22.61007961,-99999.0,'11111222,11111222,99999999' 
TABS,ioos:station:wmo:42049:1,2017-07-02T13:30:00Z,28.3507,-96.0058,2.0,50.92121497,29.68005559,-99999.0,'11111222,11111222,99999999' 
TABS,ioos:station:wmo:42049:1,2017-07-02T14:00:00Z,28.3507,-96.0058,2.0,65.34606311,31.38054334,-99999.0,'11111222,11111222,99999999' 
TABS,ioos:station:wmo:42049:1,2017-07-02T14:30:00Z,28.3507,-96.0058,2.0,69.3877402,29.79752003,-99999.0,'11111222,11111222,99999999' 
TABS,ioos:station:wmo:42049:1,2017-07-02T15:00:00Z,28.3507,-96.0058,2.0,74.97575091,34.17835134,-99999.0,'11111222,11111222,99999999' 
TABS,ioos:station:wmo:42049:1,2017-07-02T15:30:00Z,28.3507,-96.0058,2.0,75.46878814,32.00377009,-99999.0,'11111222,11111222,99999999' 
TABS,ioos:station:wmo:42049:1,2017-07-02T16:00:00Z,28.3507,-96.0058,2.0,74.67485481,32.99319324,-99999.0,'11111222,11111222,99999999' 
TABS,ioos:station:wmo:42049:1,2017-07-02T16:30:00Z,28.3507,-96.0058,2.0,72.67595097,27.40312391,-99999.0,'11111222,11111222,99999999' 
TABS,ioos:station:wmo:42049:1,2017-07-02T17:00:00Z,28.3507,-96.0058,2.0,70.94526906,26.89358288,-99999.0,'11111222,11111222,99999999' 
TABS,ioos:station:wmo:42049:1,2017-07-02T17:30:00Z,28.3507,-96.0058,2.0,72.31990188,29.76594027,-99999.0,'11111222,11111222,99999999' 
TABS,ioos:station:wmo:42049:1,2017-07-02T18:00:00Z,28.3507,-96.0058,2.0,69.80391983,34.46929793,-99999.0,'11111222,11111222,99999999' 
TABS,ioos:station:wmo:42049:1,2017-07-02T18:30:00Z,28.3507,-96.0058,2.0,74.23386616,32.05599164,-99999.0,'11111222,11111222,99999999' 
TABS,ioos:station:wmo:42049:1,2017-07-02T19:00:00Z,28.3507,-96.0058,2.0,72.8221954,35.89100305,-99999.0,'11111222,11111222,99999999' 
TABS,ioos:station:wmo:42049:1,2017-07-02T19:30:00Z,28.3507,-96.0058,2.0,74.98633165,37.67611578,-99999.0,'11111222,11111222,99999999' 
TABS,ioos:station:wmo:42049:1,2017-07-02T20:00:00Z,28.3507,-96.0058,2.0,74.99526197,38.74089958,-99999.0,'11111222,11111222,99999999' 
TABS,ioos:station:wmo:42049:1,2017-07-02T20:30:00Z,28.3507,-96.0058,2.0,71.2045039,37.1827971,-99999.0,'11111222,11111222,99999999' 
TABS,ioos:station:wmo:42049:1,2017-07-02T21:00:00Z,28.3507,-96.0058,2.0,68.33028142,36.37038493,-99999.0,'11111222,11111222,99999999' 
TABS,ioos:station:wmo:42049:1,2017-07-02T21:30:00Z,28.3507,-96.0058,2.0,69.06917179,37.03378188,-99999.0,'11111222,11111222,99999999' 
TABS,ioos:station:wmo:42049:1,2017-07-02T22:00:00Z,28.3507,-96.0058,2.0,67.43460186,39.68847944,-99999.0,'11111222,11111222,99999999' 
TABS,ioos:station:wmo:42049:1,2017-07-02T22:30:00Z,28.3507,-96.0058,2.0,69.57953761,37.60308498,-99999.0,'11111222,11111222,99999999' 
TABS,ioos:station:wmo:42049:1,2017-07-02T23:00:00Z,28.3507,-96.0058,2.0,67.10794033,37.5581163,-99999.0,'11111222,11111222,99999999' 
TABS,ioos:station:wmo:42049:1,2017-07-02T23:30:00Z,28.3507,-96.0058,2.0,65.88026783,39.20266317,-99999.0,'11111222,11111222,99999999' 
TABS,ioos:station:wmo:42049:1,2017-07-03T00:00:00Z,28.3507,-96.0058,2.0,64.42175522,39.213031,-99999.0,'11111222,11111222,99999999' 
TABS,ioos:station:wmo:42049:1,2017-07-03T00:30:00Z,28.3507,-96.0058,2.0,65.46819793,36.68119137,-99999.0,'11111222,11111222,99999999' 
TABS,ioos:station:wmo:42049:1,2017-07-03T01:00:00Z,28.3507,-96.0058,2.0,65.13737634,37.4840993,-99999.0,'11111222,11111222,99999999' 
TABS,ioos:station:wmo:42049:1,2017-07-03T01:30:00Z,28.3507,-96.0058,2.0,65.51608086,34.35972206,-99999.0,'11111222,11111222,99999999' 
TABS,ioos:station:wmo:42049:1,2017-07-03T02:00:00Z,28.3507,-96.0058,2.0,64.17906841,35.47150124,-99999.0,'11111222,11111222,99999999' 
TABS,ioos:station:wmo:42049:1,2017-07-03T02:30:00Z,28.3507,-96.0058,2.0,60.31851333,31.42297885,-99999.0,'11111222,11111222,99999999' 
TABS,ioos:station:wmo:42049:1,2017-07-03T03:00:00Z,28.3507,-96.0058,2.0,60.00417959,34.82432627,-99999.0,'11111222,11111222,99999999' 
TABS,ioos:station:wmo:42049:1,2017-07-03T03:30:00Z,28.3507,-96.0058,2.0,56.8355069,31.75237471,-99999.0,'11111222,11111222,99999999' 
TABS,ioos:station:wmo:42049:1,2017-07-03T04:00:00Z,28.3507,-96.0058,2.0,50.5740146,34.21604594,-99999.0,'11111222,11111222,99999999' 
TABS,ioos:station:wmo:42049:1,2017-07-03T04:30:00Z,28.3507,-96.0058,2.0,54.34982395,31.94723775,-99999.0,'11111222,11111222,99999999' 
TABS,ioos:station:wmo:42049:1,2017-07-03T05:00:00Z,28.3507,-96.0058,2.0,57.77441644,30.60448497,-99999.0,'11111222,11111222,99999999' 
TABS,ioos:station:wmo:42049:1,2017-07-03T05:30:00Z,28.3507,-96.0058,2.0,51.89574007,32.86362731,-99999.0,'11111222,11111222,99999999' 
TABS,ioos:station:wmo:42049:1,2017-07-03T06:00:00Z,28.3507,-96.0058,2.0,53.7698263,31.35195369,-99999.0,'11111222,11111222,99999999' 
TABS,ioos:station:wmo:42049:1,2017-07-03T06:30:00Z,28.3507,-96.0058,2.0,49.33681813,36.09508,-99999.0,'11111222,11111222,99999999' 
TABS,ioos:station:wmo:42049:1,2017-07-03T07:00:00Z,28.3507,-96.0058,2.0,49.63442412,38.50765119,-99999.0,'11111222,11111222,99999999' 
TABS,ioos:station:wmo:42049:1,2017-07-03T07:30:00Z,28.3507,-96.0058,2.0,53.6442028,34.10937261,-99999.0,'11111222,11111222,99999999' 
TABS,ioos:station:wmo:42049:1,2017-07-03T08:00:00Z,28.3507,-96.0058,2.0,51.39923051,40.98470202,-99999.0,'11111222,11111222,99999999' 
TABS,ioos:station:wmo:42049:1,2017-07-03T08:30:00Z,28.3507,-96.0058,2.0,50.14843477,39.79387516,-99999.0,'11111222,11111222,99999999' 
TABS,ioos:station:wmo:42049:1,2017-07-03T09:00:00Z,28.3507,-96.0058,2.0,53.4277888,40.43054538,-99999.0,'11111222,11111222,99999999' 
TABS,ioos:station:wmo:42049:1,2017-07-03T09:30:00Z,28.3507,-96.0058,2.0,52.45563574,39.07270787,-99999.0,'11111222,11111222,99999999' 
TABS,ioos:station:wmo:42049:1,2017-07-03T10:00:00Z,28.3507,-96.0058,2.0,53.88752993,40.55154251,-99999.0,'11111222,11111222,99999999' 
TABS,ioos:station:wmo:42049:1,2017-07-03T10:30:00Z,28.3507,-96.0058,2.0,48.86096774,35.70507247,-99999.0,'11111222,11111222,99999999' 
TABS,ioos:station:wmo:42049:1,2017-07-03T11:00:00Z,28.3507,-96.0058,2.0,52.56277302,45.23821836,-99999.0,'11111222,11111222,99999999' 
TABS,ioos:station:wmo:42049:1,2017-07-03T11:30:00Z,28.3507,-96.0058,2.0,56.72560192,36.32549793,-99999.0,'11111222,11111222,99999999' 
TABS,ioos:station:wmo:42049:1,2017-07-03T12:00:00Z,28.3507,-96.0058,2.0,57.41075285,41.29118187,-99999.0,'11111222,11111222,99999999' 
TABS,ioos:station:wmo:42049:1,2017-07-03T12:30:00Z,28.3507,-96.0058,2.0,56.33822008,45.0666229,-99999.0,'11111222,11111222,99999999' 
TABS,ioos:station:wmo:42049:1,2017-07-03T13:00:00Z,28.3507,-96.0058,2.0,60.18614815,46.32080526,-99999.0,'11111222,11111222,99999999' 
TABS,ioos:station:wmo:42049:1,2017-07-03T13:30:00Z,28.3507,-96.0058,2.0,58.3884881,45.95941362,-99999.0,'11111222,11111222,99999999' 
TABS,ioos:station:wmo:42049:1,2017-07-03T14:00:00Z,28.3507,-96.0058,2.0,58.99294608,47.57886611,-99999.0,'11111222,11111222,99999999' 
TABS,ioos:station:wmo:42049:1,2017-07-03T14:30:00Z,28.3507,-96.0058,2.0,61.54359272,49.59170193,-99999.0,'11111222,11111222,99999999' 
TABS,ioos:station:wmo:42049:1,2017-07-03T15:00:00Z,28.3507,-96.0058,2.0,57.92072946,48.44724347,-99999.0,'11111222,11111222,99999999' 
TABS,ioos:station:wmo:42049:1,2017-07-03T15:30:00Z,28.3507,-96.0058,2.0,60.42249918,50.1214096,-99999.0,'11111222,11111222,99999999' 
TABS,ioos:station:wmo:42049:1,2017-07-03T16:00:00Z,28.3507,-96.0058,2.0,58.73600307,51.69724364,-99999.0,'11111222,11111222,99999999' 
TABS,ioos:station:wmo:42049:1,2017-07-03T16:30:00Z,28.3507,-96.0058,2.0,60.55449016,53.66187939,-99999.0,'11111222,11111222,99999999' 
TABS,ioos:station:wmo:42049:1,2017-07-03T17:00:00Z,28.3507,-96.0058,2.0,60.24211452,54.35822385,-99999.0,'11111222,11111222,99999999' 
TABS,ioos:station:wmo:42049:1,2017-07-03T17:30:00Z,28.3507,-96.0058,2.0,60.59622974,54.17933185,-99999.0,'11111222,11111222,99999999' 
TABS,ioos:station:wmo:42049:1,2017-07-03T18:00:00Z,28.3507,-96.0058,2.0,63.57481297,54.98507525,-99999.0,'11111222,11111222,99999999' 
TABS,ioos:station:wmo:42049:1,2017-07-03T18:30:00Z,28.3507,-96.0058,2.0,63.74177467,55.12881007,-99999.0,'11111222,11111222,99999999' 
TABS,ioos:station:wmo:42049:1,2017-07-03T19:00:00Z,28.3507,-96.0058,2.0,66.83288991,52.66701814,-99999.0,'11111222,11111222,99999999' 
TABS,ioos:station:wmo:42049:1,2017-07-03T19:30:00Z,28.3507,-96.0058,2.0,65.33338247,53.86513622,-99999.0,'11111222,11111222,99999999' 
TABS,ioos:station:wmo:42049:1,2017-07-03T20:00:00Z,28.3507,-96.0058,2.0,64.15691666,51.82275273,-99999.0,'11111222,11111222,99999999' 
TABS,ioos:station:wmo:42049:1,2017-07-03T20:30:00Z,28.3507,-96.0058,2.0,63.73366997,54.05096946,-99999.0,'11111222,11111222,99999999' 
TABS,ioos:station:wmo:42049:1,2017-07-03T21:00:00Z,28.3507,-96.0058,2.0,60.86625582,51.28879897,-99999.0,'11111222,11111222,99999999' 
TABS,ioos:station:wmo:42049:1,2017-07-03T21:30:00Z,28.3507,-96.0058,2.0,59.11719835,51.02430989,-99999.0,'11111222,11111222,99999999' 
TABS,ioos:station:wmo:42049:1,2017-07-03T22:00:00Z,28.3507,-96.0058,2.0,61.39367668,44.94665727,-99999.0,'11111222,11111222,99999999' 
TABS,ioos:station:wmo:42049:1,2017-07-03T22:30:00Z,28.3507,-96.0058,2.0,59.44844865,47.92308942,-99999.0,'11111222,11111222,99999999' 
TABS,ioos:station:wmo:42049:1,2017-07-03T23:00:00Z,28.3507,-96.0058,2.0,59.18508247,48.21698974,-99999.0,'11111222,11111222,99999999' 
TABS,ioos:station:wmo:42049:1,2017-07-03T23:30:00Z,28.3507,-96.0058,2.0,60.6572147,41.89500328,-99999.0,'11111222,11111222,99999999' 
TABS,ioos:station:wmo:42049:1,2017-07-04T00:00:00Z,28.3507,-96.0058,2.0,62.84683257,40.51521443,-99999.0,'11111222,11111222,99999999' 
TABS,ioos:station:wmo:42049:1,2017-07-04T00:30:00Z,28.3507,-96.0058,2.0,61.9512065,38.51353269,-99999.0,'11111222,11111222,99999999' 
TABS,ioos:station:wmo:42049:1,2017-07-04T01:00:00Z,28.3507,-96.0058,2.0,61.64634584,32.23744717,-99999.0,'11111222,11111222,99999999' 
TABS,ioos:station:wmo:42049:1,2017-07-04T01:30:00Z,28.3507,-96.0058,2.0,53.82631946,36.54469729,-99999.0,'11111222,11111222,99999999' 
TABS,ioos:station:wmo:42049:1,2017-07-04T02:00:00Z,28.3507,-96.0058,2.0,55.94113797,30.58680271,-99999.0,'11111222,11111222,99999999' 
TABS,ioos:station:wmo:42049:1,2017-07-04T02:30:00Z,28.3507,-96.0058,2.0,47.99651442,33.81765515,-99999.0,'11111222,11111222,99999999' 
TABS,ioos:station:wmo:42049:1,2017-07-04T03:00:00Z,28.3507,-96.0058,2.0,42.40135436,33.84157945,-99999.0,'11111222,11111222,99999999' 
TABS,ioos:station:wmo:42049:1,2017-07-04T03:30:00Z,28.3507,-96.0058,2.0,42.73125838,35.72275465,-99999.0,'11111222,11111222,99999999' 
TABS,ioos:station:wmo:42049:1,2017-07-04T04:00:00Z,28.3507,-96.0058,2.0,41.8621968,39.14047649,-99999.0,'11111222,11111222,99999999' 
TABS,ioos:station:wmo:42049:1,2017-07-04T04:30:00Z,28.3507,-96.0058,2.0,38.17472181,42.60104459,-99999.0,'11111222,11111222,99999999' 
TABS,ioos:station:wmo:42049:1,2017-07-04T05:00:00Z,28.3507,-96.0058,2.0,39.81593355,42.96277575,-99999.0,'11111222,11111222,99999999' 
TABS,ioos:station:wmo:42049:1,2017-07-04T05:30:00Z,28.3507,-96.0058,2.0,40.42936083,40.81673431,-99999.0,'11111222,11111222,99999999' 
TABS,ioos:station:wmo:42049:1,2017-07-04T06:00:00Z,28.3507,-96.0058,2.0,39.78433473,41.22531746,-99999.0,'11111222,11111222,99999999' 
TABS,ioos:station:wmo:42049:1,2017-07-04T06:30:00Z,28.3507,-96.0058,2.0,38.25706198,37.75906381,-99999.0,'11111222,11111222,99999999' 
TABS,ioos:station:wmo:42049:1,2017-07-04T07:00:00Z,28.3507,-96.0058,2.0,39.28253497,46.13489135,-99999.0,'11111222,11111222,99999999' 
TABS,ioos:station:wmo:42049:1,2017-07-04T07:30:00Z,28.3507,-96.0058,2.0,38.49247254,45.42020916,-99999.0,'11111222,11111222,99999999' 
TABS,ioos:station:wmo:42049:1,2017-07-04T08:00:00Z,28.3507,-96.0058,2.0,43.19987258,44.11695366,-99999.0,'11111222,11111222,99999999' 
TABS,ioos:station:wmo:42049:1,2017-07-04T08:30:00Z,28.3507,-96.0058,2.0,45.43897216,45.23494777,-99999.0,'11111222,11111222,99999999' 
TABS,ioos:station:wmo:42049:1,2017-07-04T09:00:00Z,28.3507,-96.0058,2.0,41.7827301,47.87588119,-99999.0,'11111222,11111222,99999999' 
TABS,ioos:station:wmo:42049:1,2017-07-04T09:30:00Z,28.3507,-96.0058,2.0,45.27775899,45.23415192,-99999.0,'11111222,11111222,99999999' 
TABS,ioos:station:wmo:42049:1,2017-07-04T10:00:00Z,28.3507,-96.0058,2.0,43.82331344,47.51345494,-99999.0,'11111222,11111222,99999999' 
TABS,ioos:station:wmo:42049:1,2017-07-04T10:30:00Z,28.3507,-96.0058,2.0,44.80998463,46.88143769,-99999.0,'11111222,11111222,99999999' 
TABS,ioos:station:wmo:42049:1,2017-07-04T11:00:00Z,28.3507,-96.0058,2.0,44.27387531,40.72555095,-99999.0,'11111222,11111222,99999999' 
TABS,ioos:station:wmo:42049:1,2017-07-04T11:30:00Z,28.3507,-96.0058,2.0,43.34902495,38.28451384,-99999.0,'11111222,11111222,99999999' 
TABS,ioos:station:wmo:42049:1,2017-07-04T12:00:00Z,28.3507,-96.0058,2.0,47.49852512,43.63461126,-99999.0,'11111222,11111222,99999999' 
TABS,ioos:station:wmo:42049:1,2017-07-04T12:30:00Z,28.3507,-96.0058,2.0,46.05836674,42.49729521,-99999.0,'11111222,11111222,99999999' 
TABS,ioos:station:wmo:42049:1,2017-07-04T13:00:00Z,28.3507,-96.0058,2.0,50.78986225,46.33264616,-99999.0,'11111222,11111222,99999999' 
TABS,ioos:station:wmo:42049:1,2017-07-04T13:30:00Z,28.3507,-96.0058,2.0,50.57229,48.35417872,-99999.0,'11111222,11111222,99999999' 
TABS,ioos:station:wmo:42049:1,2017-07-04T14:00:00Z,28.3507,-96.0058,2.0,49.16196493,46.18271971,-99999.0,'11111222,11111222,99999999' 
TABS,ioos:station:wmo:42049:1,2017-07-04T14:30:00Z,28.3507,-96.0058,2.0,50.19452199,49.28267545,-99999.0,'11111222,11111222,99999999' 
TABS,ioos:station:wmo:42049:1,2017-07-04T15:00:00Z,28.3507,-96.0058,2.0,53.05647869,49.74804117,-99999.0,'11111222,11111222,99999999' 
TABS,ioos:station:wmo:42049:1,2017-07-04T15:30:00Z,28.3507,-96.0058,2.0,49.69780897,51.54446333,-99999.0,'11111222,11111222,99999999' 
TABS,ioos:station:wmo:42049:1,2017-07-04T16:00:00Z,28.3507,-96.0058,2.0,49.38908794,51.18908087,-99999.0,'11111222,11111222,99999999' 